SENTINEL-6

Last updated on Tue Sep 16 2025 00:02:31 GMT+0000 (Coordinated Universal Time)

1 46984U 20086A 25258.57050629 -.00000052 00000+0 38694-4 0 9994 2 46984 66.0448 345.4380 0007971 268.3560 91.6542 12.80930265225150
UTC large
Height (km)
Speed (km/s)
/
Latitude / Longitude
Inclination (degrees)
Orbital Period (minutes)
Azimuth
Elevation
Range (km)
Doppler Factor

Next 0 passes for location: London (51.5072 / 0.1276)

Sorry there are no passes over London.